Regional Weather Roundup
Issued by NWS Wakefield, VA

Current Version | Previous Version | Text Only | Print | Product List | Glossary Off
Versions: 1 2 3 4 5 6 7 8 9 10 11 12 13 14 15 16 17 18 19 20 21 22 23 24 25 26 27 28 29 30 31 32 33 34 35 36 37 38 39 40 41 42 43 44 45 46 47 48 49 50

000
ASUS41 KAKQ 261015
RWRAKQ

REGIONAL WEATHER ROUNDUP
NATIONAL WEATHER SERVICE WAKEFIELD VA
500 AM EST SUN FEB 26 2017

Note: "fair" indicates few or no clouds below 12,000 feet with no
significant weather and/or obstructions to visibility. * = Denotes
station may not report precipitation (e.g., rain,snow,etc.),
thunder or fog.

VAZ042-051-052>054-056-261100-
NORTHERN VIRGINIA

CITY           SKY/WX    TMP DP  RH WIND       PRES   REMARKS
WASH NATIONAL  PTCLDY    37  18  46 NW9       30.00R
DULLES         PTCLDY    33  16  49 NW14G22   29.99R WCI  23
FORT BELVOIR   CLEAR     36  16  44 NW8       30.01R
QUANTICO       CLEAR     36  19  50 N9        30.02R
FREDERICKSBRG* CLEAR     37  24  60 N6        30.00R
STAFFORD*      CLEAR     33  22  61 NW9       30.04R
WARRENTON      CLEAR     34  15  46 NW7       30.00R
CULPEPER*      PTCLDY    33  20  60 N5        30.02R
MANASSAS*      CLEAR     34  16  47 NW16      30.01R WCI  24
LEESBURG*      CLOUDY    34  21  60 MISG      30.01R
WINCHESTER     CLOUDY    32  14  47 W14G22    30.00R WCI  22
FRONT ROYAL*   MOSUNNY   32  16  51 W12G17    29.99R WCI  23
LURAY*         CLOUDY    34  21  60 NW7       29.99R
$$

VAZ048-049-060>072-079>083-261100-
CENTRAL AND SOUTH CENTRAL VIRGINIA

CITY           SKY/WX    TMP DP  RH WIND       PRES   REMARKS
RICHMOND       CLEAR     38  24  57 N6        29.99R
CHESTERFIELD*  FAIR      37  12  35 NW3       30.00R
PETERSBURG*    CLEAR     37  21  52 NW6       30.00R
HANOVER        CLEAR     36  21  54 NW7       30.00R
TAPPAHANNOCK*  CLEAR     38  13  35 N5        29.98R
QUINTON*       NOT AVBL
CHARLOTTSVILLE CLEAR     35  17  47 NW5       30.00R
GORDONSVILLE*  NOT AVBL
ORANGE*        CLEAR     34  18  51 W12       30.01R
LOUISA*        CLEAR     36  23  60 W7        29.98R
BUMPASS*       FAIR      35  22  59 NW3       29.99R
FARMVILLE*     CLEAR     33  25  71 CALM      30.00R
CREWE*         FAIR      36  23  59 W5        30.00R
FORT PICKETT*  NOT AVBL
CHASE CITY*    FAIR      35  20  54 W3        30.02R
CLARKSVILLE*   FAIR      36  21  55 W5        30.02R
SOUTH HILL*    CLEAR     37  23  58 W6        30.07R
LAWRENCEVILLE* FAIR      36  23  58 CALM      30.00R
EMPORIA*       CLEAR     37  23  56 CALM      30.02R
$$

VAZ088>098-261100-
SOUTHEAST VIRGINIA

CITY           SKY/WX    TMP DP  RH WIND       PRES   REMARKS
NORFOLK        CLEAR     46  30  53 N17       29.96R
VIRGINIA BEACH CLEAR     43  30  60 N12       29.95R
NORFOLK NAVAL  CLEAR     45  27  49 NW18      29.98R
WEST POINT*    CLEAR     39  23  51 CALM      30.00R
SALUDA*        FAIR      40  27  58 NW12G18   29.96R
NEWPORT NEWS   CLEAR     41  24  51 N9        29.97R
LANGLEY AFB    CLEAR     42  25  51 N7        29.97R
FORT EUSTIS    CLEAR     42  24  50 N8        29.95R
WILLIAMSBURG*  CLEAR     41  27  56 CALM      29.99R
HR EXEC AP*    NOT AVBL
FRANKLIN*      CLEAR     40  24  52 W7        30.00R
US460-WAKEFLD  CLEAR     36  25  64 CALM      29.98R
$$

VAZ020-022-025-037-045-261100-
WEST CENTRAL AND SOUTHWEST VIRGINIA

CITY           SKY/WX    TMP DP  RH WIND       PRES   REMARKS
STAUNTON*      CLEAR     29  15  55 NW6       30.01R
WAYNESBORO*    MOSUNNY   30  15  55 CALM      29.98R
HOT SPRINGS VA PTCLDY    21  12  68 W23G30    29.86R WCI   5
LYNCHBURG      PTCLDY    32  16  51 CALM      30.03R
DANVILLE       CLEAR     35  20  54 W8        30.05R
SOUTH BOSTON*  NOT AVBL
MARTINSVILLE   CLEAR     28  18  66 CALM      30.07R
ROANOKE        PTCLDY    32  16  51 NW14      30.04R WCI  22
BLACKSBURG     MOCLDY    28  17  63 W8        30.02R
DUBLIN*        CLEAR     29  17  60 W17       30.02R WCI  17
MARION*        CLEAR     27  17  65 W17G31    30.03R WCI  14
HILLSVILLE*    CLEAR     25  17  71 NW14G20   29.96R WCI  13
RICHLANDS*     FAIR      24  17  74 CALM      30.04R
WISE*          CLEAR     27  18  69 CALM      30.05R
ABINGDON*      CLEAR     29  18  62 NW3       30.08R
$$

MDZ021>025-VAZ099-100-261100-
SOUTHERN MARYLAND AND THE DELMARVA PENINSULA

CITY           SKY/WX    TMP DP  RH WIND       PRES   REMARKS
PATUXENT RIVER CLEAR     39  25  57 N14G23    29.96R
BAY BRIDGE APT CLOUDY    39  25  56 NW15      29.97R
LEONARDTOWN    CLEAR     36  23  60 NW8       29.98R
DOVER          PTCLDY    38  24  57 NW12      29.93R
GEORGETOWN     CLEAR     40  23  50 NW9       29.93R
EASTON         PTCLDY    39  22  50 NW8G16    30.00R
CAMBRIDGE      CLEAR     39  21  48 NW10G22   29.96R
SALISBURY      CLEAR     38  27  64 NW10      29.93R
OCEAN CITY     CLEAR     40  24  53 NW13      29.92R
WALLOPS ISLAND CLEAR     40  27  59 NW8       29.94R
ACCOMACK*      CLEAR     42  29  60 NW13      29.94R
$$

NCZ012>017-030>032-261100-
NORTH CENTRAL AND EASTERN NORTH CAROLINA

CITY           SKY/WX    TMP DP  RH WIND       PRES   REMARKS
ROANOKE RAPIDS FAIR      39  25  56 NW6       30.01R
RALEIGH        CLEAR     40  17  39 NW3       30.04R
ELIZABETH CITY CLEAR     41  26  55 W9        29.96R
AHOSKIE*         N/A     41  23  49 CALM      30.00R
EDENTON*       CLEAR     47  27  45 NW8       29.99R
CURRITUCK*     CLEAR     46  26  47 W6        29.96R
KILL DEVIL HLS NOT AVBL
MANTEO         CLEAR     49  31  50 N9        29.95R
CAPE HATTERAS  CLEAR     54  32  43 NW9G21    29.94R
TARBORO*       NOT AVBL
GOLDSBORO      CLEAR     46  18  32 NW10      30.00R
WASHINGTON     CLEAR     43  22  43 NW5       30.00R
GREENVILLE     CLEAR     45  21  39 NW5       30.03R
NEW BERN       CLEAR     48  21  34 NW9G21    30.00R
WILMINGTON     CLEAR     48  22  35 NW9       30.01R
$$

VAZ048-261100-
ELSEWHERE

CITY           SKY/WX    TMP DP  RH WIND       PRES   REMARKS
HARRISBURG PA  MOCLDY    34  19  54 NW24G32   29.95R WCI  21
BALTIMORE      MOCLDY    36  22  56 NW12      29.96R
ANNAPOLIS      CLOUDY    39  22  50 W8        29.96R
ANDREWS AFB    MOCLDY    36  19  49 W12       29.97R
PHILADELPHIA   MOCLDY    39  21  48 W12G21    29.91R
HENDERSON NC   CLEAR     34  17  49 CALM      30.02R
GREENSBORO     CLEAR     36  18  48 NW9       30.04R
ROCKY MOUNT    CLEAR     42  21  43 NW10      30.02R
$$

VAZ100-261100-
MARINE

STATION/POSITION TIME  TEMP    WIND        PRES    WAVE   SWELL
                       AIR SEA DIR/SP/G            HT/PER HT/PER
                 (UTC) (F)     (DEG/KT/KT) (MB)    (FT/S) (FT/S)
CAPE MAY NJ      0948   40 45  320/ 12/ 24 1012.5R
LEWES DE         0948   41 45  300/ 20/ 23 1013.0R
OCEAN-CITY-INLET 0948   42 50  340/ 14/ 16 1013.3R
WACHAPREAGUE VA  0948   42 55  300/  2/ 12 1013.7R
THOMAS POINT MD  1000   39 44  300/ 15/ 19   N/A
GOOSES REEF MD   0950   39     360/ 16/ 19 1015.3R
COVE POINT MD    0948   38     350/ 20/ 24 1015.1R
SOLOMONS ISLAND  0948   40 44  330/ 10/ 13   N/A
BISHOPS HEAD MD  0948   40 51  320/ 14/ 19 1014.7R
PINEY POINT MD   0948          360/ 21/ 24   N/A
POTOMAC MD       0950   41     340/ 14/ 17 1013.4R
CAMBRIDGE MD     0948   40 47  300/ 14/ 21 1013.7R
LEWISETTA VA     0948   42 51  340/ 16/ 20 1014.2R
RAPPAHANNOCK LGT 0948          330/ 24/ 25 1014.5R
YORK RVR RNG VA  0948   44     350/ 13/ 15 1013.8R
YORKTOWN VA      0948   43 50  320/ 10/ 14 1014.5R
JAMESTOWN VA     0950   43     330/  8/ 14   N/A
DOMINION TERM VA 0948   45      40/  2/  7 1014.7R
KIPTOPEKE VA     0948      50  360/ 11/ 15   N/A
CHES BAY BRIDGE  0948   45 48  360/ 17/ 19 1014.2R
CAPE HENRY VA    0948   45     340/ 21/ 25   N/A
WILLOUBY STN VA  0948   45     330/ 15/ 17 1015.5R
S CRANEY ISL VA  0948   46     360/ 12/ 16 1014.2R
CAPE HENRY BUOY  0942      49                N/A     5/11   2/11
OFFSHORE WE BUOY 0951      49                N/A     6/10   2/11
64NM E OF VA BCH 0950   48 51  340/ 21/ 25 1012.3R   7/10   3/10
DUCK PIER NC     0948   50 49  350/ 12/ 17 1013.4R
44100 DUCK FRF   0935      50                N/A     4/10   2/11
44056 DUCK FRF   0930      50                N/A     3/11   2/11
OREGON INLET NC  0942   52 61  300/ 12/ 18 1013.6R
HATTERAS NC      0948   54 64  320/ 21/ 26 1013.6R
DIAMOND SHLS NC  0950   58 73  330/ 19/ 25 1013.3R   8/ 8   5/10
CAPE LOOKOUT NC  0900   56     340/ 17/ 19 1013.4R
$$



USA.gov is the U.S. government's official web portal to all federal, state and local government web resources and services.